Location: Unspecified
(0.0000°N, 0.0000°E)
Time: 15:58:09
(UTC+00:00)

Tiros 1 despin weight - Visible Passes

Search period start: 13 December 2018 00:00
Search period end: 23 December 2018 00:00
Orbit: 594 x 643 km, 48.2° (Epoch: 13 December)

Date Brightness Start Highest point End Pass type
(mag) Time Alt. Az. Time Alt. Az. Time Alt. Az.
14 Dec ? 20:08:19 10° S 20:08:27 10° S 20:08:27 10° S visible
15 Dec ? 20:23:49 10° SSW 20:24:44 16° SSW 20:24:44 16° SSW visible
16 Dec ? 19:02:23 10° SE 19:03:18 11° SE 19:04:00 10° ESE visible
16 Dec ? 20:40:27 10° SW 20:41:05 14° SW 20:41:05 14° SW visible
17 Dec ? 19:16:13 10° S 19:20:02 28° SE 19:20:25 28° ESE visible
18 Dec ? 19:32:16 10° SW 19:36:40 83° SE 19:36:53 78° ENE visible
19 Dec ? 19:49:20 10° WSW 19:53:19 33° NW 19:53:25 33° NW visible
20 Dec ? 18:24:23 10° SSW 18:28:36 44° SE 18:32:47 10° ENE visible
20 Dec ? 20:08:06 10° WNW 20:09:59 12° NW 20:09:59 12° NW visible
21 Dec ? 18:40:52 10° SW 18:45:14 62° NW 18:49:27 11° NNE visible
22 Dec ? 05:09:04 10° N 05:12:03 17° NE 05:15:01 10° E visible
22 Dec ? 18:58:28 10° WSW 19:01:53 22° NW 19:05:17 10° N visible
